Location: Chuathbaluk
(61.5726°N, 159.2454°W)
Time: 04:20:10
(UTC+00:00)

Transit 4A - Pass Details

Date: 27 November 2020
Orbit: 864 x 980 km, 66.8° (Epoch: 26 January)

Event Time Altitude Azimuth Distance (km) Brightness Sun altitude
Rises 19:40:35 0° 210° (SSW) 3,648 11.3 0.8°
Reaches altitude 10° 19:43:10 10° 207° (SSW) 2,714 10.7 1.0°
Maximum altitude 19:49:22 57° 131° (SE) 1,145 9.0 1.5°
Drops below altitude 10° 19:55:39 10° 54° (NE) 2,743 10.4 1.9°
Sets 19:58:15 0° 51° (NE) 3,689 11.0 2.1°
